| time (UTC) | temp F | wind direction | speed MPH | gust MPH | rain 1hr in | rain 24hr in | rain mn in | humidity % | barometer mb |
| 20260903044231 | 61 | 355 | 0.0 | 0.0 | 0.00 | 0.07 | 0.07 | 76 | 1015.4 |
| 20260903043707 | 62 | 355 | 0.0 | 0.0 | 0.00 | 0.07 | 0.07 | 75 | 1015.3 |
| 20260903042222 | 62 | 273 | 0.0 | 0.0 | 0.00 | 0.07 | 0.07 | 74 | 1015.2 |
| 20260903041201 | 63 | 273 | 2.0 | 4.0 | 0.00 | 0.07 | 0.07 | 74 | 1015.3 |
| 20260903040141 | 63 | 254 | 2.0 | 6.0 | 0.00 | 0.07 | 0.07 | 73 | 1015.2 |
| 20260903040052 | 63 | 263 | 1.0 | 5.0 | 0.00 | 0.07 | 0.07 | 73 | 1015.0 |
| 20260903034141 | 63 | 265 | 3.0 | 10.0 | 0.00 | 0.07 | 0.07 | 72 | 1015.0 |
| 20260903033140 | 64 | 265 | 1.0 | 3.0 | 0.00 | 0.07 | 0.07 | 70 | 1014.9 |
| 20260903033110 | 64 | 292 | 2.0 | 5.0 | 0.00 | 0.07 | 0.07 | 69 | 1014.6 |
| 20260903031138 | 65 | 284 | 3.0 | 6.0 | 0.00 | 0.07 | 0.07 | 68 | 1014.5 |
| 20260903030139 | 65 | 291 | 3.0 | 7.0 | 0.00 | 0.07 | 0.07 | 66 | 1014.4 |
| 20260903025618 | 66 | 223 | 3.0 | 9.0 | 0.00 | 0.07 | 0.07 | 65 | 1014.5 |
| 20260903024138 | 67 | 291 | 2.0 | 6.0 | 0.00 | 0.07 | 0.07 | 63 | 1014.5 |
| 20260903023134 | 67 | 296 | 2.0 | 10.0 | 0.00 | 0.07 | 0.07 | 62 | 1014.6 |
| 20260903022135 | 69 | 261 | 1.0 | 5.0 | 0.00 | 0.07 | 0.07 | 59 | 1014.5 |
| 20260903021607 | 69 | 269 | 2.0 | 9.0 | 0.00 | 0.07 | 0.07 | 57 | 1014.6 |
| 20260903020127 | 70 | 217 | 2.0 | 9.0 | 0.00 | 0.07 | 0.07 | 57 | 1014.6 |
| 20260903015127 | 70 | 220 | 3.0 | 7.0 | 0.00 | 0.07 | 0.07 | 56 | 1014.6 |
| 20260903014125 | 72 | 213 | 3.0 | 9.0 | 0.00 | 0.07 | 0.07 | 54 | 1014.7 |
| 20260903013123 | 72 | 234 | 5.0 | 10.0 | 0.00 | 0.07 | 0.07 | 53 | 1014.7 |
| 20260903012123 | 73 | 215 | 4.0 | 10.0 | 0.00 | 0.07 | 0.07 | 53 | 1014.7 |
| 20260903011120 | 73 | 250 | 3.0 | 10.0 | 0.00 | 0.07 | 0.07 | 54 | 1014.6 |
| 20260903010120 | 73 | 184 | 4.0 | 10.0 | 0.00 | 0.07 | 0.07 | 53 | 1014.6 |
| 20260903005109 | 74 | 280 | 3.0 | 10.0 | 0.00 | 0.07 | 0.07 | 53 | 1014.6 |
| 20260903004107 | 73 | 192 | 5.0 | 13.0 | 0.00 | 0.07 | 0.07 | 54 | 1014.5 |
| 20260903003104 | 74 | 220 | 4.0 | 11.0 | 0.00 | 0.07 | 0.07 | 53 | 1014.5 |
| 20260903002104 | 74 | 261 | 5.0 | 13.0 | 0.00 | 0.07 | 0.07 | 53 | 1014.5 |
| 20260903001103 | 75 | 263 | 4.0 | 11.0 | 0.00 | 0.07 | 0.07 | 52 | 1014.5 |
| 20260903000103 | 75 | 188 | 3.0 | 10.0 | 0.00 | 0.07 | 0.07 | 53 | 1014.6 |
| 20260902235457 | 73 | 224 | 5.0 | 12.0 | 0.00 | 0.07 | 0.07 | 54 | 1014.6 |
| 20260902235129 | 74 | 202 | 5.0 | 12.0 | 0.00 | 0.07 | 0.07 | 53 | 1014.7 |
| 20260902233548 | 73 | 264 | 7.0 | 15.0 | 0.00 | 0.07 | 0.07 | 55 | 1014.6 |
| 20260902232103 | 75 | 232 | 4.0 | 10.0 | 0.00 | 0.07 | 0.07 | 55 | 1014.6 |
| 20260902231055 | 74 | 282 | 6.0 | 13.0 | 0.00 | 0.07 | 0.07 | 55 | 1014.8 |
| 20260902230053 | 75 | 223 | 5.0 | 13.0 | 0.00 | 0.07 | 0.07 | 54 | 1014.9 |
| 20260902225053 | 75 | 205 | 5.0 | 15.0 | 0.00 | 0.07 | 0.07 | 55 | 1015.0 |
| 20260902225020 | 74 | 269 | 2.0 | 5.0 | 0.00 | 0.07 | 0.07 | 58 | 1015.0 |
| 20260902223053 | 73 | 148 | 1.0 | 4.0 | 0.00 | 0.07 | 0.07 | 61 | 1015.1 |
| 20260902222051 | 73 | 115 | 2.0 | 10.0 | 0.00 | 0.07 | 0.07 | 58 | 1015.2 |
| 20260902221046 | 74 | 186 | 4.0 | 11.0 | 0.00 | 0.07 | 0.07 | 60 | 1015.2 |
| 20260902220045 | 73 | 110 | 4.0 | 10.0 | 0.00 | 0.07 | 0.07 | 63 | 1015.2 |
| 20260902220001 | 72 | 130 | 3.0 | 11.0 | 0.00 | 0.07 | 0.07 | 64 | 1015.3 |
| 20260902214032 | 72 | 124 | 3.0 | 10.0 | 0.00 | 0.07 | 0.07 | 64 | 1015.4 |
| 20260902213513 | 72 | 129 | 2.0 | 10.0 | 0.00 | 0.07 | 0.07 | 64 | 1015.4 |
| 20260902212031 | 72 | 59 | 3.0 | 12.0 | 0.00 | 0.07 | 0.07 | 64 | 1015.3 |
| 20260902211029 | 71 | 130 | 3.0 | 9.0 | 0.00 | 0.07 | 0.07 | 67 | 1015.5 |
| 20260902210506 | 71 | 120 | 4.0 | 13.0 | 0.00 | 0.07 | 0.07 | 66 | 1015.4 |
| 20260902205028 | 71 | 88 | 3.0 | 7.0 | 0.00 | 0.07 | 0.07 | 68 | 1015.5 |
| 20260902204028 | 70 | 109 | 3.0 | 10.0 | 0.00 | 0.07 | 0.07 | 70 | 1015.5 |
| 20260902203455 | 70 | 103 | 3.0 | 10.0 | 0.00 | 0.07 | 0.07 | 72 | 1015.7 |
| 20260902202504 | 70 | 138 | 2.0 | 10.0 | 0.00 | 0.07 | 0.07 | 69 | 1015.6 |
| 20260902201022 | 69 | 126 | 2.0 | 7.0 | 0.00 | 0.07 | 0.07 | 71 | 1015.6 |
| 20260902200023 | 69 | 131 | 2.0 | 9.0 | 0.00 | 0.07 | 0.07 | 71 | 1015.7 |
| 20260902195505 | 69 | 111 | 3.0 | 10.0 | 0.00 | 0.07 | 0.07 | 73 | 1015.8 |
| 20260902194014 | 70 | 112 | 3.0 | 7.0 | 0.00 | 0.07 | 0.07 | 72 | 1015.9 |
| 20260902193457 | 70 | 103 | 3.0 | 7.0 | 0.00 | 0.07 | 0.07 | 73 | 1016.0 |
| 20260902192013 | 69 | 231 | 2.0 | 6.0 | 0.00 | 0.07 | 0.07 | 74 | 1016.1 |
| 20260902191453 | 68 | 132 | 3.0 | 10.0 | 0.00 | 0.07 | 0.07 | 74 | 1016.2 |
| 20260902190451 | 69 | 136 | 2.0 | 9.0 | 0.00 | 0.07 | 0.07 | 74 | 1016.2 |
| 20260902185011 | 68 | 135 | 3.0 | 7.0 | 0.00 | 0.07 | 0.07 | 76 | 1016.3 |
| 20260902184011 | 68 | 76 | 3.0 | 6.0 | 0.00 | 0.07 | 0.07 | 78 | 1016.3 |
| 20260902182943 | 67 | 107 | 1.0 | 6.0 | 0.00 | 0.07 | 0.07 | 78 | 1016.2 |
| 20260902181942 | 66 | 177 | 2.0 | 6.0 | 0.00 | 0.07 | 0.07 | 79 | 1016.3 |
| 20260902181421 | 66 | 128 | 2.0 | 7.0 | 0.00 | 0.07 | 0.07 | 84 | 1016.2 |
| 20260902175935 | 65 | 80 | 2.0 | 6.0 | 0.00 | 0.07 | 0.07 | 86 | 1016.2 |
| 20260902175421 | 65 | 114 | 2.0 | 5.0 | 0.00 | 0.07 | 0.07 | 87 | 1016.1 |
| 20260902173930 | 64 | 187 | 2.0 | 5.0 | 0.00 | 0.07 | 0.07 | 88 | 1016.1 |
| 20260902172931 | 64 | 168 | 3.0 | 7.0 | 0.00 | 0.07 | 0.07 | 90 | 1016.0 |
| 20260902171930 | 64 | 115 | 3.0 | 6.0 | 0.00 | 0.07 | 0.07 | 92 | 1015.8 |
| 20260902171406 | 63 | 175 | 1.0 | 6.0 | 0.00 | 0.07 | 0.07 | 94 | 1015.9 |
| 20260902165930 | 62 | 111 | 2.0 | 8.0 | 0.00 | 0.07 | 0.07 | 95 | 1015.9 |
| 20260902164930 | 61 | 199 | 2.0 | 7.0 | 0.00 | 0.07 | 0.07 | 96 | 1015.7 |
| 20260902163925 | 61 | 135 | 2.0 | 5.0 | 0.00 | 0.07 | 0.07 | 95 | 1015.6 |
| 20260902162923 | 61 | 156 | 2.0 | 6.0 | 0.00 | 0.07 | 0.07 | 96 | 1015.5 |
| 20260902161920 | 61 | 150 | 3.0 | 9.0 | 0.00 | 0.07 | 0.07 | 95 | 1015.4 |
| 20260902160918 | 61 | 87 | 1.0 | 5.0 | 0.00 | 0.07 | 0.07 | 96 | 1015.3 |
| 20260902155917 | 60 | 257 | 2.0 | 6.0 | 0.00 | 0.07 | 0.07 | 96 | 1015.4 |
| 20260902154918 | 60 | 146 | 2.0 | 7.0 | 0.00 | 0.07 | 0.07 | 95 | 1015.4 |
| 20260902154411 | 60 | 183 | 2.0 | 10.0 | 0.00 | 0.07 | 0.07 | 95 | 1015.3 |
| 20260902153353 | 60 | 199 | 1.0 | 4.0 | 0.00 | 0.07 | 0.07 | 96 | 1015.3 |
| 20260902151917 | 60 | 164 | 1.0 | 5.0 | 0.00 | 0.07 | 0.07 | 96 | 1015.2 |
| 20260902151404 | 60 | 109 | 2.0 | 5.0 | 0.01 | 0.07 | 0.07 | 96 | 1015.2 |
| 20260902145918 | 60 | 110 | 1.0 | 5.0 | 0.01 | 0.07 | 0.07 | 96 | 1015.2 |
| 20260902145352 | 60 | 179 | 2.0 | 4.0 | 0.01 | 0.07 | 0.07 | 95 | 1015.3 |
| 20260902143914 | 60 | 163 | 1.0 | 4.0 | 0.01 | 0.07 | 0.07 | 95 | 1015.1 |
| 20260902142907 | 60 | 208 | 1.0 | 4.0 | 0.02 | 0.07 | 0.07 | 95 | 1015.0 |
| 20260902142758 | 59 | 183 | 1.0 | 4.0 | 0.02 | 0.07 | 0.07 | 95 | 1014.9 |
| 20260902141309 | 59 | 206 | 1.0 | 3.0 | 0.01 | 0.06 | 0.06 | 95 | 1014.8 |
| 20260902135834 | 59 | 154 | 1.0 | 4.0 | 0.01 | 0.06 | 0.06 | 95 | 1014.6 |
| 20260902134834 | 59 | 136 | 2.0 | 4.0 | 0.01 | 0.06 | 0.06 | 95 | 1014.5 |
| 20260902133833 | 59 | 149 | 1.0 | 5.0 | 0.02 | 0.06 | 0.06 | 95 | 1014.5 |
| 20260902132833 | 59 | 186 | 0.0 | 3.0 | 0.02 | 0.05 | 0.05 | 95 | 1014.4 |
| 20260902131833 | 59 | 71 | 1.0 | 5.0 | 0.03 | 0.05 | 0.05 | 95 | 1014.4 |
| 20260902130824 | 59 | 159 | 0.0 | 3.0 | 0.04 | 0.05 | 0.05 | 95 | 1014.4 |
| 20260902125823 | 59 | 119 | 1.0 | 4.0 | 0.04 | 0.05 | 0.05 | 95 | 1014.4 |
| 20260902124812 | 59 | 128 | 1.0 | 3.0 | 0.05 | 0.05 | 0.05 | 94 | 1014.3 |
| 20260902124243 | 59 | 141 | 1.0 | 4.0 | 0.04 | 0.04 | 0.04 | 94 | 1014.2 |
| 20260902122758 | 59 | 247 | 0.0 | 2.0 | 0.03 | 0.03 | 0.03 | 94 | 1014.4 |
| 20260902121756 | 59 | 119 | 1.0 | 5.0 | 0.02 | 0.02 | 0.02 | 94 | 1014.3 |
| 20260902120755 | 59 | 223 | 1.0 | 3.0 | 0.01 | 0.01 | 0.02 | 93 | 1014.3 |
| 20260902115754 | 59 | 217 | 0.0 | 3.0 | 0.01 | 0.01 | 0.01 | 93 | 1014.3 |
| 20260902114755 | 59 | 107 | 0.0 | 0.0 | 0.00 | 0.00 | 0.00 | 92 | 1014.2 |
| 20260902113753 | 59 | 107 | 1.0 | 4.0 | 0.00 | 0.00 | 0.00 | 91 | 1014.2 |
| 20260902112731 | 59 | 124 | 0.0 | 0.0 | 0.00 | 0.00 | 0.00 | 90 | 1014.3 |
| 20260902111719 | 59 | 124 | 0.0 | 0.0 | 0.00 | 0.00 | 0.00 | 88 | 1014.3 |
| 20260902110707 | 59 | 124 | 0.0 | 0.0 | 0.00 | 0.00 | 0.00 | 87 | 1014.2 |
| 20260902105705 | 59 | 124 | 0.0 | 0.0 | 0.00 | 0.00 | 0.00 | 88 | 1014.2 |
| 20260902105121 | 59 | 124 | 0.0 | 2.0 | 0.00 | 0.00 | 0.00 | 88 | 1014.2 |
| 20260902104105 | 59 | 44 | 0.0 | 1.0 | 0.00 | 0.00 | 0.00 | 88 | 1014.3 |
| 20260902102629 | 59 | 299 | 0.0 | 0.0 | 0.00 | 0.00 | 0.00 | 87 | 1014.4 |
| 20260902101630 | 59 | 299 | 0.0 | 0.0 | 0.00 | 0.00 | 0.00 | 87 | 1014.5 |
| 20260902100629 | 59 | 299 | 0.0 | 1.0 | 0.00 | 0.00 | 0.00 | 86 | 1014.6 |
| 20260902095630 | 59 | 299 | 0.0 | 1.0 | 0.00 | 0.00 | 0.00 | 86 | 1014.7 |
| 20260902094617 | 59 | 19 | 0.0 | 1.0 | 0.00 | 0.00 | 0.00 | 85 | 1014.7 |
| 20260902094050 | 58 | 20 | 0.0 | 0.0 | 0.00 | 0.00 | 0.00 | 85 | 1014.9 |
| 20260902093017 | 58 | 20 | 0.0 | 1.0 | 0.00 | 0.00 | 0.00 | 85 | 1014.9 |
| 20260902091525 | 58 | 20 | 0.0 | 1.0 | 0.00 | 0.00 | 0.00 | 85 | 1015.0 |
| 20260902090508 | 58 | 20 | 0.0 | 0.0 | 0.00 | 0.00 | 0.00 | 85 | 1015.1 |
| 20260902085450 | 58 | 20 | 0.0 | 0.0 | 0.00 | 0.00 | 0.00 | 85 | 1015.1 |
| 20260902084914 | 57 | 20 | 0.0 | 1.0 | 0.00 | 0.00 | 0.00 | 85 | 1015.2 |
| 20260902083431 | 57 | 314 | 0.0 | 2.0 | 0.00 | 0.00 | 0.00 | 85 | 1015.3 |
| 20260902082432 | 57 | 309 | 0.0 | 3.0 | 0.00 | 0.00 | 0.00 | 85 | 1015.2 |
| 20260902081430 | 57 | 331 | 0.0 | 3.0 | 0.00 | 0.00 | 0.00 | 85 | 1015.0 |
| 20260902080910 | 57 | 78 | 0.0 | 0.0 | 0.00 | 0.00 | 0.00 | 86 | 1015.2 |
| 20260902075427 | 56 | 78 | 0.0 | 0.0 | 0.00 | 0.00 | 0.00 | 85 | 1015.1 |
| 20260902074411 | 56 | 78 | 0.0 | 0.0 | 0.00 | 0.00 | 0.00 | 86 | 1015.0 |
| 20260902073346 | 56 | 78 | 0.0 | 0.0 | 0.00 | 0.00 | 0.00 | 87 | 1015.0 |
| 20260902072322 | 56 | 78 | 0.0 | 0.0 | 0.00 | 0.00 | 0.00 | 86 | 1015.0 |
| 20260902071258 | 56 | 78 | 0.0 | 0.0 | 0.00 | 0.00 | 0.00 | 85 | 1014.9 |
| 20260902070712 | 57 | 78 | 0.0 | 0.0 | 0.00 | 0.00 | 0.00 | 84 | 1014.8 |
| 20260902065211 | 56 | 78 | 0.0 | 2.0 | 0.00 | 0.00 | 0.00 | 85 | 1014.8 |
| 20260902064211 | 57 | 78 | 0.0 | 2.0 | 0.00 | 0.00 | 0.00 | 84 | 1014.8 |
| 20260902063212 | 57 | 78 | 0.0 | 2.0 | 0.00 | 0.00 | 0.00 | 84 | 1014.8 |
| 20260902062159 | 57 | 78 | 0.0 | 2.0 | 0.00 | 0.00 | 0.00 | 82 | 1014.7 |
| 20260902061132 | 58 | 78 | 0.0 | 0.0 | 0.00 | 0.00 | 0.00 | 81 | 1014.8 |
| 20260902060125 | 58 | 78 | 0.0 | 0.0 | 0.00 | 0.00 | 0.00 | 81 | 1014.9 |
| 20260902055125 | 59 | 78 | 0.0 | 2.0 | 0.00 | 0.00 | 0.00 | 80 | 1014.8 |
| 20260902054541 | 59 | 78 | 2.0 | 4.0 | 0.00 | 0.00 | 0.00 | 80 | 1014.9 |
| 20260902053044 | 59 | 79 | 2.0 | 3.0 | 0.00 | 0.00 | 0.00 | 80 | 1014.9 |
| 20260902052042 | 58 | 78 | 2.0 | 4.0 | 0.00 | 0.00 | 0.00 | 79 | 1015.0 |
| 20260902051040 | 59 | 73 | 3.0 | 4.0 | 0.00 | 0.00 | 0.00 | 79 | 1014.9 |
| 20260902050041 | 59 | 67 | 2.0 | 4.0 | 0.00 | 0.00 | 0.00 | 77 | 1014.7 |